User: anonymous   Login
Location: Fort Wayne
(41.1310°N, 85.1290°W)
Time: 23:15:47
(UTC-04:00)
Language:

Helios 1B - Orbit

View from above orbital plane
View from above orbital plane
View from above satellite
View from above satellite

Ground track
Ground track

The orbit data is extracted from the following two-line orbital elements,

1 25977U 99064A   16181.76360289  .00000165  00000-0  27724-4 0  9994
2 25977  98.1363 281.2344 0001520  45.1170 315.0166 14.82067707891802
Epoch (UTC): 29 June 2016 18:19:35
Eccentricity: 0.0001520
inclination: 98.1363°
perigee height: 622 km
apogee height: 624 km
right ascension of ascending node: 281.2344°
argument of perigee: 45.1170°
revolutions per day: 14.82067707
mean anomaly at epoch: 315.0166°
orbit number at epoch: 89180

The dashed part of the orbit path shows where the satellite is in the earth's shadow,  

DLR